Location: Ethel Rock
(53.4667°N, 4.5667°W)
Time: 04:36:35
(UTC+00:00)

ADEOS Rocket - Pass Details

Date: 24 October 2020
Orbit: 859 x 1306 km, 98.7° (Epoch: 25 November)

Event Time Altitude Azimuth Distance (km) Brightness Sun altitude
Rises 04:27:01 0° 173° (S) 3,449 5.8 -23.7°
Reaches altitude 10° 04:29:25 10° 176° (S) 2,499 5.1 -23.3°
Maximum altitude 04:34:51 63° 258° (WSW) 960 2.6 -22.5°
Drops below altitude 10° 04:40:25 10° 340° (NNW) 2,561 5.1 -21.7°
Sets 04:42:54 0° 343° (NNW) 3,541 5.9 -21.3°
